TimeMST,TemperatureF,Dew PointF,Humidity,Sea Level PressureIn,VisibilityMPH,Wind Direction,Wind SpeedMPH,Gust SpeedMPH,PrecipitationIn,Events,Conditions,WindDirDegrees,DateUTC
12:53 AM,19.9,8.1,60,30.14,10.0,WNW,3.5,-,N/A,,Clear,300,2013-01-23 07:53:00
1:53 AM,19.9,8.1,60,30.13,10.0,NW,8.1,-,N/A,,Clear,310,2013-01-23 08:53:00
2:53 AM,19.0,7.0,59,30.13,10.0,NW,4.6,-,N/A,,Clear,320,2013-01-23 09:53:00
3:53 AM,19.0,8.1,62,30.12,10.0,NW,8.1,-,N/A,,Clear,310,2013-01-23 10:53:00
4:53 AM,19.0,8.1,62,30.16,10.0,WNW,6.9,-,N/A,,Clear,290,2013-01-23 11:53:00
5:53 AM,23.0,10.0,58,30.16,10.0,West,8.1,-,N/A,,Clear,270,2013-01-23 12:53:00
6:53 AM,28.9,8.1,41,30.16,10.0,West,12.7,-,N/A,,Clear,260,2013-01-23 13:53:00
7:53 AM,23.0,9.0,55,30.19,10.0,SW,8.1,-,N/A,,Clear,220,2013-01-23 14:53:00
8:53 AM,36.0,10.9,36,30.17,10.0,WSW,6.9,-,N/A,,Clear,240,2013-01-23 15:53:00
9:53 AM,46.0,7.0,20,30.17,10.0,Calm,Calm,-,N/A,,Clear,0,2013-01-23 16:53:00
10:53 AM,48.0,5.0,17,30.20,10.0,ESE,3.5,-,N/A,,Clear,110,2013-01-23 17:53:00
11:53 AM,52.0,7.0,16,30.16,10.0,NNE,4.6,-,N/A,,Clear,30,2013-01-23 18:53:00
12:53 PM,52.0,6.1,16,30.17,10.0,NNE,8.1,-,N/A,,Clear,30,2013-01-23 19:53:00
1:53 PM,50.0,12.0,22,30.18,10.0,East,10.4,-,N/A,,Clear,80,2013-01-23 20:53:00
2:53 PM,48.0,12.0,24,30.19,10.0,ENE,13.8,-,N/A,,Clear,60,2013-01-23 21:53:00
3:53 PM,42.1,14.0,32,30.23,10.0,ESE,9.2,-,N/A,,Clear,110,2013-01-23 22:53:00
4:53 PM,35.1,16.0,46,30.27,10.0,East,8.1,-,N/A,,Clear,100,2013-01-23 23:53:00
5:53 PM,30.9,17.1,57,30.28,10.0,ESE,8.1,-,N/A,,Clear,120,2013-01-24 00:53:00
6:53 PM,28.9,18.0,64,30.29,10.0,ENE,19.6,55.2,N/A,,Clear,70,2013-01-24 01:53:00
7:53 PM,26.1,17.1,69,30.32,10.0,SE,11.5,-,N/A,,Clear,140,2013-01-24 02:53:00
8:53 PM,24.1,17.1,75,30.29,10.0,SE,10.4,-,N/A,,Clear,140,2013-01-24 03:53:00
9:53 PM,21.9,16.0,78,30.26,10.0,SSE,10.4,-,N/A,,Clear,150,2013-01-24 04:53:00
10:53 PM,23.0,18.0,81,30.25,10.0,SSE,11.5,-,N/A,,Clear,160,2013-01-24 05:53:00
11:53 PM,21.0,18.0,88,30.24,10.0,South,11.5,-,N/A,,Clear,170,2013-01-24 06:53:00